Weather History for PHTO - July, 2013

Change the Weather History Date:

Wednesday, July 24, 2013

  Actual Average Record
Temperature  
Mean Temperature 78 °F 76 °F  
Max Temperature 84 °F 83 °F 91 °F (2004)
Min Temperature 71 °F 70 °F 63 °F (1955)
Degree Days  
Heating Degree Days 0 0  
Month to date heating degree days 0 0  
Since 1 June heating degree days 0 0  
Since 1 July heating degree days 0 0  
Cooling Degree Days 13 11  
Month to date cooling degree days 289 264  
Year to date cooling degree days 1763 1638  
Since 1 June cooling degree days 610 570  
Growing Degree Days 28 (Base 50)    
Moisture  
Dew Point 66 °F    
Average Humidity 73    
Maximum Humidity 90    
Minimum Humidity 55    
Precipitation  
Precipitation 0.02 in 0.38 in 1.78 in (2003)
Month to date precipitation 3.35 8.21  
Year to date precipitation 54.90 67.49  
Snow  
Snow 0.00 in - - ()
Month to date snowfall 0.0  
Since 1 June snowfall 0.0  
Since 1 July snowfall 0.0  
Snow Depth 0.00 in    
Sea Level Pressure  
Sea Level Pressure 29.99 in    
Wind  
Wind Speed 7 mph (NW)    
Max Wind Speed 15 mph    
Max Gust Speed 20 mph    
Visibility 10 miles    
Events Rain    
T = Trace of Precipitation, MM = Missing Value Source: NWS Daily Summary

Daily Weather History Graph

Daily Weather History Graph

Search for Another Location

Airport or City:

Trip Planner

Search our weather history database for the weather conditions in past years. The results will help you decide how hot, cold, wet, or windy it might be!

Date:

Astronomy

Jul. 24, 2013 Rise Set
Actual Time 5:53 AM HST 6:59 PM HST
Civil Twilight 5:29 AM HST 7:23 PM HST
Nautical Twilight 5:01 AM HST 7:51 PM HST
Astronomical Twilight 4:32 AM HST 8:20 PM HST
Moon 8:44 PM HST (7/24) 7:59 AM HST (7/24)
Length of Visible Light 13h 53m
Length of Day
13h 06m
Waning Gibbous, 93% of the Moon is Illuminated
Jul 24
Waning Gibbous
Jul 29
Last Quarter
Aug 6
New
Aug 14
First Quarter
Aug 20
Full

Hourly Weather History & Observations

Time (HST) Temp. Heat Index Dew Point Humidity Pressure Visibility Wind Dir Wind Speed Gust Speed Precip Events Conditions
12:53 AM 72.0 °F - 66.9 °F 84% 30.02 in 10.0 mi SW 5.8 mph - N/A   Scattered Clouds
1:41 AM 72.0 °F - 66.9 °F 84% 30.01 in 10.0 mi WSW 3.5 mph - N/A   Overcast
1:53 AM 73.0 °F - 66.9 °F 81% 30.00 in 10.0 mi SSE 3.5 mph - N/A   Overcast
2:53 AM 71.1 °F - 66.9 °F 87% 29.99 in 10.0 mi WSW 5.8 mph - 0.02 in Rain Light Rain
3:53 AM 71.1 °F - 68.0 °F 90% 29.99 in 10.0 mi WSW 4.6 mph - 0.00 in   Overcast
4:01 AM 72.0 °F - 68.0 °F 87% 29.99 in 10.0 mi WSW 4.6 mph - N/A   Overcast
4:53 AM 72.0 °F - 68.0 °F 87% 29.99 in 10.0 mi WSW 5.8 mph - N/A   Overcast
5:53 AM 71.1 °F - 66.9 °F 87% 30.00 in 10.0 mi SW 4.6 mph - N/A   Mostly Cloudy
6:33 AM 73.0 °F - 68.0 °F 84% 30.01 in 9.0 mi SSW 3.5 mph - 0.00 in Rain Light Rain
6:53 AM 73.9 °F - 69.1 °F 85% 30.01 in 10.0 mi SW 4.6 mph - 0.00 in   Mostly Cloudy
7:53 AM 77.0 °F - 68.0 °F 74% 30.02 in 10.0 mi North 4.6 mph - N/A   Mostly Cloudy
8:53 AM 78.1 °F - 66.9 °F 68% 30.03 in 10.0 mi NNE 5.8 mph - N/A   Mostly Cloudy
9:53 AM 82.0 °F 84.9 °F 68.0 °F 62% 30.03 in 10.0 mi NE 9.2 mph - N/A   Mostly Cloudy
10:53 AM 81.0 °F 83.3 °F 66.9 °F 62% 30.01 in 10.0 mi ENE 11.5 mph - N/A   Mostly Cloudy
11:53 AM 82.9 °F 85.0 °F 66.0 °F 56% 30.00 in 10.0 mi ENE 11.5 mph - N/A   Mostly Cloudy
12:53 PM 82.9 °F 85.4 °F 66.9 °F 58% 29.99 in 10.0 mi ENE 11.5 mph - N/A   Mostly Cloudy
1:53 PM 82.0 °F 83.8 °F 64.9 °F 56% 29.97 in 10.0 mi NE 11.5 mph - N/A   Scattered Clouds
2:53 PM 82.9 °F 85.0 °F 66.0 °F 56% 29.96 in 10.0 mi NNE 10.4 mph - N/A   Scattered Clouds
3:53 PM 81.0 °F 83.3 °F 66.9 °F 62% 29.94 in 10.0 mi ENE 11.5 mph - N/A   Scattered Clouds
4:53 PM 81.0 °F 82.5 °F 64.0 °F 56% 29.93 in 10.0 mi ENE 9.2 mph - N/A   Mostly Cloudy
5:53 PM 80.1 °F 81.7 °F 64.0 °F 58% 29.94 in 10.0 mi NE 5.8 mph - N/A   Partly Cloudy
6:53 PM 77.0 °F - 64.9 °F 66% 29.95 in 10.0 mi NE 3.5 mph - N/A   Overcast
7:53 PM 75.9 °F - 66.0 °F 71% 29.96 in 10.0 mi NNW 4.6 mph - N/A   Clear
8:53 PM 73.9 °F - 64.9 °F 73% 29.98 in 10.0 mi WNW 4.6 mph - N/A   Partly Cloudy
9:53 PM 73.0 °F - 64.9 °F 76% 29.99 in 10.0 mi Calm Calm - N/A   Mostly Cloudy
10:53 PM 73.0 °F - 64.9 °F 76% 29.99 in 10.0 mi SW 4.6 mph - 0.00 in Rain Light Rain
11:53 PM 71.1 °F - 64.0 °F 78% 29.98 in 10.0 mi WSW 5.8 mph - 0.00 in   Scattered Clouds